| time (UTC) | temp F | wind direction | speed MPH | gust MPH | rain 1hr in | rain 24hr in | rain mn in | humidity % | barometer mb |
| 20260906222151 | 97 | 305 | 1.0 | 6.0 | 0.00 | 0.00 | 0.00 | 44 | 1010.9 |
| 20260906221649 | 98 | 307 | 1.0 | 4.0 | 0.00 | 0.00 | 0.00 | 44 | 1011.0 |
| 20260906221145 | 98 | 29 | 0.0 | 1.0 | 0.00 | 0.00 | 0.00 | 45 | 1011.0 |
| 20260906220640 | 96 | 35 | 0.0 | 2.0 | 0.00 | 0.00 | 0.00 | 46 | 1011.0 |
| 20260906220135 | 97 | 339 | 0.0 | 3.0 | 0.00 | 0.00 | 0.00 | 45 | 1010.9 |
| 20260906215634 | 98 | 309 | 1.0 | 4.0 | 0.00 | 0.00 | 0.00 | 44 | 1011.0 |
| 20260906215132 | 99 | 282 | 0.0 | 4.0 | 0.00 | 0.00 | 0.00 | 44 | 1010.7 |
| 20260906214632 | 97 | 342 | 0.0 | 0.0 | 0.00 | 0.00 | 0.00 | 44 | 1010.8 |
| 20260906214127 | 97 | 329 | 1.0 | 2.0 | 0.00 | 0.00 | 0.00 | 44 | 1010.6 |
| 20260906213626 | 99 | 329 | 1.0 | 1.0 | 0.00 | 0.00 | 0.00 | 43 | 1010.6 |
| 20260906213121 | 98 | 329 | 0.0 | 2.0 | 0.00 | 0.00 | 0.00 | 43 | 1010.6 |
| 20260906212618 | 98 | 15 | 1.0 | 4.0 | 0.00 | 0.00 | 0.00 | 45 | 1010.5 |
| 20260906212114 | 97 | 287 | 0.0 | 3.0 | 0.00 | 0.00 | 0.00 | 45 | 1010.7 |
| 20260906211613 | 96 | 10 | 1.0 | 2.0 | 0.00 | 0.00 | 0.00 | 46 | 1010.5 |
| 20260906211109 | 97 | 340 | 1.0 | 3.0 | 0.00 | 0.00 | 0.00 | 45 | 1010.3 |
| 20260906210604 | 96 | 65 | 1.0 | 3.0 | 0.00 | 0.00 | 0.00 | 48 | 1010.7 |
| 20260906210059 | 97 | 283 | 0.0 | 1.0 | 0.00 | 0.00 | 0.00 | 45 | 1010.5 |
| 20260906205555 | 98 | 294 | 0.0 | 3.0 | 0.00 | 0.00 | 0.00 | 46 | 1010.6 |
| 20260906205051 | 98 | 341 | 2.0 | 3.0 | 0.00 | 0.00 | 0.00 | 44 | 1010.6 |
| 20260906204550 | 98 | 340 | 2.0 | 4.0 | 0.00 | 0.00 | 0.00 | 43 | 1010.7 |
| 20260906204045 | 96 | 37 | 1.0 | 3.0 | 0.00 | 0.00 | 0.00 | 44 | 1010.7 |
| 20260906203544 | 96 | 38 | 1.0 | 4.0 | 0.00 | 0.00 | 0.00 | 46 | 1010.8 |
| 20260906203039 | 97 | 55 | 1.0 | 3.0 | 0.00 | 0.00 | 0.00 | 45 | 1011.0 |
| 20260906202536 | 97 | 55 | 1.0 | 2.0 | 0.00 | 0.00 | 0.00 | 45 | 1011.0 |
| 20260906202031 | 96 | 63 | 0.0 | 2.0 | 0.00 | 0.00 | 0.00 | 45 | 1011.5 |
| 20260906201531 | 98 | 28 | 0.0 | 2.0 | 0.00 | 0.00 | 0.00 | 44 | 1011.2 |
| 20260906201030 | 97 | 24 | 0.0 | 0.0 | 0.00 | 0.00 | 0.00 | 44 | 1011.4 |
| 20260906200526 | 97 | 24 | 3.0 | 3.0 | 0.00 | 0.00 | 0.00 | 43 | 1011.5 |
| 20260906200022 | 96 | 350 | 1.0 | 2.0 | 0.00 | 0.00 | 0.00 | 43 | 1011.7 |
| 20260906195517 | 96 | 308 | 4.0 | 6.0 | 0.00 | 0.00 | 0.00 | 44 | 1011.8 |
| 20260906195014 | 96 | 338 | 0.0 | 3.0 | 0.00 | 0.00 | 0.00 | 45 | 1011.7 |
| 20260906194509 | 96 | 304 | 1.0 | 2.0 | 0.00 | 0.00 | 0.00 | 44 | 1011.9 |
| 20260906194004 | 97 | 324 | 2.0 | 6.0 | 0.00 | 0.00 | 0.00 | 45 | 1012.1 |
| 20260906193458 | 97 | 297 | 1.0 | 2.0 | 0.00 | 0.00 | 0.00 | 45 | 1012.0 |
| 20260906192954 | 96 | 300 | 0.0 | 3.0 | 0.00 | 0.00 | 0.00 | 47 | 1011.9 |
| 20260906192449 | 97 | 12 | 2.0 | 4.0 | 0.00 | 0.00 | 0.00 | 47 | 1012.1 |
| 20260906191948 | 96 | 329 | 1.0 | 2.0 | 0.00 | 0.00 | 0.00 | 48 | 1012.1 |
| 20260906191443 | 96 | 316 | 2.0 | 3.0 | 0.00 | 0.00 | 0.00 | 47 | 1012.3 |
| 20260906190942 | 96 | 342 | 1.0 | 4.0 | 0.00 | 0.00 | 0.00 | 47 | 1012.3 |
| 20260906190441 | 95 | 257 | 3.0 | 7.0 | 0.00 | 0.00 | 0.00 | 46 | 1012.4 |
| 20260906185936 | 96 | 307 | 3.0 | 4.0 | 0.00 | 0.00 | 0.00 | 47 | 1012.8 |
| 20260906185435 | 94 | 323 | 2.0 | 4.0 | 0.00 | 0.00 | 0.00 | 47 | 1012.4 |
| 20260906184934 | 94 | 297 | 1.0 | 6.0 | 0.00 | 0.00 | 0.00 | 49 | 1012.6 |
| 20260906184430 | 95 | 307 | 4.0 | 9.0 | 0.00 | 0.00 | 0.00 | 49 | 1012.6 |
| 20260906183925 | 96 | 347 | 1.0 | 1.0 | 0.00 | 0.00 | 0.00 | 50 | 1012.5 |
| 20260906183422 | 95 | 329 | 0.0 | 2.0 | 0.00 | 0.00 | 0.00 | 51 | 1012.6 |
| 20260906182917 | 94 | 315 | 0.0 | 2.0 | 0.00 | 0.00 | 0.00 | 49 | 1012.6 |
| 20260906182412 | 94 | 310 | 2.0 | 4.0 | 0.00 | 0.00 | 0.00 | 48 | 1012.7 |
| 20260906181908 | 94 | 311 | 3.0 | 6.0 | 0.00 | 0.00 | 0.00 | 47 | 1012.9 |
| 20260906181404 | 94 | 315 | 5.0 | 8.0 | 0.00 | 0.00 | 0.00 | 47 | 1012.8 |
| 20260906180859 | 94 | 321 | 1.0 | 7.0 | 0.00 | 0.00 | 0.00 | 46 | 1012.8 |
| 20260906180354 | 94 | 309 | 1.0 | 3.0 | 0.00 | 0.00 | 0.00 | 49 | 1012.8 |
| 20260906175851 | 93 | 304 | 5.0 | 7.0 | 0.00 | 0.00 | 0.00 | 52 | 1013.1 |
| 20260906175346 | 93 | 101 | 1.0 | 2.0 | 0.00 | 0.00 | 0.00 | 52 | 1013.1 |
| 20260906174845 | 93 | 330 | 5.0 | 8.0 | 0.00 | 0.00 | 0.00 | 50 | 1013.2 |
| 20260906174345 | 93 | 297 | 3.0 | 7.0 | 0.00 | 0.00 | 0.00 | 53 | 1013.1 |
| 20260906173840 | 93 | 315 | 3.0 | 6.0 | 0.00 | 0.00 | 0.00 | 52 | 1013.2 |
| 20260906173336 | 92 | 330 | 1.0 | 6.0 | 0.00 | 0.00 | 0.00 | 55 | 1013.4 |
| 20260906172834 | 92 | 31 | 2.0 | 2.0 | 0.00 | 0.00 | 0.00 | 55 | 1013.3 |
| 20260906172331 | 92 | 307 | 1.0 | 2.0 | 0.00 | 0.00 | 0.00 | 57 | 1013.2 |
| 20260906171825 | 92 | 22 | 0.0 | 3.0 | 0.00 | 0.00 | 0.00 | 61 | 1013.4 |
| 20260906171320 | 92 | 302 | 1.0 | 3.0 | 0.00 | 0.00 | 0.00 | 60 | 1013.4 |
| 20260906170816 | 91 | 302 | 4.0 | 4.0 | 0.00 | 0.00 | 0.00 | 61 | 1013.5 |
| 20260906170312 | 91 | 40 | 0.0 | 2.0 | 0.00 | 0.00 | 0.00 | 63 | 1013.6 |
| 20260906165808 | 90 | 345 | 0.0 | 3.0 | 0.00 | 0.00 | 0.00 | 67 | 1013.5 |
| 20260906165306 | 90 | 327 | 0.0 | 4.0 | 0.00 | 0.00 | 0.00 | 65 | 1013.8 |
| 20260906164801 | 90 | 318 | 1.0 | 3.0 | 0.00 | 0.00 | 0.00 | 66 | 1013.7 |
| 20260906164256 | 90 | 341 | 0.0 | 2.0 | 0.00 | 0.00 | 0.00 | 66 | 1014.0 |
| 20260906163753 | 90 | 3 | 0.0 | 2.0 | 0.00 | 0.00 | 0.00 | 67 | 1013.9 |
| 20260906163249 | 89 | 37 | 2.0 | 4.0 | 0.00 | 0.00 | 0.00 | 68 | 1014.0 |
| 20260906162746 | 89 | 320 | 1.0 | 2.0 | 0.00 | 0.00 | 0.00 | 66 | 1014.2 |
| 20260906162240 | 89 | 344 | 0.0 | 3.0 | 0.00 | 0.00 | 0.00 | 68 | 1014.2 |
| 20260906161740 | 89 | 353 | 0.0 | 2.0 | 0.00 | 0.00 | 0.00 | 66 | 1014.2 |
| 20260906161239 | 89 | 314 | 0.0 | 7.0 | 0.00 | 0.00 | 0.00 | 67 | 1014.3 |
| 20260906160738 | 88 | 352 | 0.0 | 2.0 | 0.00 | 0.00 | 0.00 | 69 | 1014.4 |
| 20260906160237 | 88 | 48 | 2.0 | 2.0 | 0.00 | 0.00 | 0.00 | 70 | 1014.5 |
| 20260906155735 | 87 | 339 | 0.0 | 1.0 | 0.00 | 0.00 | 0.00 | 72 | 1014.6 |
| 20260906155230 | 87 | 319 | 4.0 | 6.0 | 0.00 | 0.00 | 0.00 | 72 | 1014.5 |
| 20260906154726 | 86 | 323 | 2.0 | 3.0 | 0.00 | 0.00 | 0.00 | 73 | 1014.6 |
| 20260906154221 | 86 | 64 | 1.0 | 2.0 | 0.00 | 0.00 | 0.00 | 75 | 1014.7 |
| 20260906153719 | 86 | 64 | 0.0 | 4.0 | 0.00 | 0.00 | 0.00 | 75 | 1014.6 |
| 20260906153214 | 86 | 28 | 0.0 | 3.0 | 0.00 | 0.00 | 0.00 | 75 | 1014.5 |
| 20260906152709 | 85 | 324 | 1.0 | 2.0 | 0.00 | 0.00 | 0.00 | 75 | 1014.5 |
| 20260906152203 | 86 | 6 | 1.0 | 2.0 | 0.00 | 0.00 | 0.00 | 75 | 1014.4 |
| 20260906151658 | 85 | 6 | 1.0 | 2.0 | 0.00 | 0.00 | 0.00 | 76 | 1014.5 |
| 20260906151154 | 85 | 40 | 0.0 | 0.0 | 0.00 | 0.00 | 0.00 | 77 | 1014.5 |
| 20260906150649 | 84 | 48 | 0.0 | 0.0 | 0.00 | 0.00 | 0.00 | 78 | 1014.5 |
| 20260906150144 | 83 | 48 | 1.0 | 3.0 | 0.00 | 0.00 | 0.00 | 79 | 1014.5 |
| 20260906145642 | 83 | 71 | 0.0 | 4.0 | 0.00 | 0.00 | 0.00 | 80 | 1014.5 |
| 20260906145137 | 83 | 29 | 0.0 | 0.0 | 0.00 | 0.00 | 0.00 | 80 | 1014.7 |
| 20260906144632 | 82 | 30 | 0.0 | 1.0 | 0.00 | 0.00 | 0.00 | 80 | 1014.6 |
| 20260906144127 | 82 | 20 | 2.0 | 3.0 | 0.00 | 0.00 | 0.00 | 82 | 1014.4 |
| 20260906143626 | 82 | 4 | 2.0 | 3.0 | 0.00 | 0.00 | 0.00 | 82 | 1014.8 |
| 20260906143124 | 81 | 68 | 2.0 | 2.0 | 0.00 | 0.00 | 0.00 | 83 | 1014.5 |
| 20260906142623 | 80 | 68 | 1.0 | 3.0 | 0.00 | 0.00 | 0.00 | 85 | 1014.6 |
| 20260906142118 | 79 | 68 | 0.0 | 3.0 | 0.00 | 0.00 | 0.00 | 87 | 1014.5 |
| 20260906141617 | 79 | 14 | 1.0 | 2.0 | 0.00 | 0.00 | 0.00 | 87 | 1014.6 |
| 20260906141113 | 79 | 14 | 0.0 | 1.0 | 0.00 | 0.00 | 0.00 | 87 | 1014.9 |
| 20260906140612 | 79 | 14 | 0.0 | 0.0 | 0.00 | 0.00 | 0.00 | 88 | 1014.7 |
| 20260906140107 | 78 | 14 | 0.0 | 0.0 | 0.00 | 0.00 | 0.00 | 89 | 1014.7 |
| 20260906135604 | 78 | 14 | 0.0 | 0.0 | 0.00 | 0.00 | 0.00 | 90 | 1014.8 |
| 20260906135100 | 78 | 14 | 0.0 | 0.0 | 0.00 | 0.00 | 0.00 | 91 | 1014.8 |
| 20260906134555 | 77 | 14 | 0.0 | 0.0 | 0.00 | 0.00 | 0.00 | 92 | 1014.9 |
| 20260906134054 | 77 | 14 | 0.0 | 0.0 | 0.00 | 0.00 | 0.00 | 93 | 1014.7 |
| 20260906133550 | 76 | 14 | 0.0 | 0.0 | 0.00 | 0.00 | 0.00 | 94 | 1015.1 |
| 20260906133046 | 76 | 14 | 0.0 | 0.0 | 0.00 | 0.00 | 0.00 | 94 | 1014.9 |
| 20260906132541 | 76 | 14 | 0.0 | 0.0 | 0.00 | 0.00 | 0.00 | 95 | 1014.9 |
| 20260906132036 | 75 | 14 | 0.0 | 0.0 | 0.00 | 0.00 | 0.00 | 95 | 1015.0 |
| 20260906131532 | 75 | 14 | 0.0 | 0.0 | 0.00 | 0.00 | 0.00 | 95 | 1015.0 |
| 20260906131027 | 75 | 14 | 0.0 | 0.0 | 0.00 | 0.00 | 0.00 | 96 | 1014.9 |
| 20260906130526 | 75 | 14 | 0.0 | 0.0 | 0.00 | 0.00 | 0.00 | 96 | 1014.7 |
| 20260906130021 | 75 | 14 | 0.0 | 0.0 | 0.00 | 0.00 | 0.00 | 96 | 1015.0 |
| 20260906125518 | 75 | 13 | 0.0 | 2.0 | 0.00 | 0.00 | 0.00 | 97 | 1014.9 |
| 20260906125013 | 74 | 14 | 0.0 | 0.0 | 0.00 | 0.00 | 0.00 | 97 | 1014.9 |
| 20260906124509 | 74 | 16 | 0.0 | 0.0 | 0.00 | 0.00 | 0.00 | 98 | 1014.8 |
| 20260906124003 | 74 | 14 | 0.0 | 0.0 | 0.00 | 0.00 | 0.00 | 98 | 1014.6 |
| 20260906123456 | 74 | 14 | 0.0 | 0.0 | 0.00 | 0.00 | 0.00 | 99 | 1014.5 |
| 20260906122951 | 74 | 14 | 0.0 | 0.0 | 0.00 | 0.00 | 0.00 | 99 | 1014.7 |
| 20260906122446 | 73 | 14 | 0.0 | 0.0 | 0.00 | 0.00 | 0.00 | 99 | 1014.6 |
| 20260906121942 | 73 | 14 | 0.0 | 0.0 | 0.00 | 0.00 | 0.00 | 99 | 1014.6 |
| 20260906121438 | 73 | 14 | 0.0 | 0.0 | 0.00 | 0.00 | 0.00 | 99 | 1014.6 |
| 20260906120935 | 73 | 14 | 0.0 | 0.0 | 0.00 | 0.00 | 0.00 | 99 | 1014.6 |
| 20260906120430 | 73 | 14 | 0.0 | 0.0 | 0.00 | 0.00 | 0.00 | 99 | 1014.2 |
| 20260906115925 | 73 | 14 | 0.0 | 0.0 | 0.00 | 0.00 | 0.00 | 99 | 1014.3 |
| 20260906115421 | 73 | 14 | 0.0 | 0.0 | 0.00 | 0.00 | 0.00 | 99 | 1014.2 |
| 20260906114915 | 72 | 16 | 0.0 | 0.0 | 0.00 | 0.00 | 0.00 | 99 | 1014.2 |
| 20260906114410 | 72 | 14 | 0.0 | 0.0 | 0.00 | 0.00 | 0.00 | 99 | 1014.0 |
| 20260906113906 | 72 | 14 | 0.0 | 0.0 | 0.00 | 0.00 | 0.00 | 99 | 1014.1 |
| 20260906113404 | 72 | 13 | 0.0 | 0.0 | 0.00 | 0.00 | 0.00 | 99 | 1014.2 |
| 20260906112900 | 72 | 13 | 0.0 | 0.0 | 0.00 | 0.00 | 0.00 | 99 | 1014.0 |
| 20260906112355 | 72 | 13 | 0.0 | 0.0 | 0.00 | 0.00 | 0.00 | 99 | 1014.2 |
| 20260906111850 | 72 | 13 | 0.0 | 0.0 | 0.00 | 0.00 | 0.00 | 99 | 1014.0 |
| 20260906111350 | 72 | 13 | 0.0 | 0.0 | 0.00 | 0.00 | 0.00 | 99 | 1014.2 |
| 20260906110844 | 72 | 14 | 0.0 | 0.0 | 0.00 | 0.00 | 0.00 | 99 | 1014.0 |
| 20260906110340 | 72 | 13 | 0.0 | 0.0 | 0.00 | 0.00 | 0.00 | 99 | 1013.8 |
| 20260906105839 | 72 | 13 | 0.0 | 0.0 | 0.00 | 0.00 | 0.00 | 99 | 1013.9 |
| 20260906105335 | 72 | 13 | 0.0 | 0.0 | 0.00 | 0.00 | 0.00 | 99 | 1014.1 |
| 20260906104830 | 72 | 14 | 0.0 | 0.0 | 0.00 | 0.00 | 0.00 | 99 | 1013.9 |
| 20260906104329 | 72 | 13 | 0.0 | 0.0 | 0.00 | 0.00 | 0.00 | 99 | 1013.8 |
| 20260906103823 | 72 | 13 | 0.0 | 0.0 | 0.00 | 0.00 | 0.00 | 99 | 1013.9 |
| 20260906103321 | 72 | 13 | 0.0 | 0.0 | 0.00 | 0.00 | 0.00 | 99 | 1013.8 |
| 20260906102817 | 72 | 13 | 0.0 | 0.0 | 0.00 | 0.00 | 0.00 | 99 | 1013.8 |
| 20260906102316 | 72 | 13 | 0.0 | 0.0 | 0.00 | 0.00 | 0.00 | 99 | 1013.9 |
| 20260906101812 | 72 | 13 | 0.0 | 0.0 | 0.00 | 0.00 | 0.00 | 99 | 1014.2 |
| 20260906101306 | 72 | 13 | 0.0 | 0.0 | 0.00 | 0.00 | 0.00 | 99 | 1014.1 |
| 20260906100802 | 72 | 13 | 0.0 | 0.0 | 0.00 | 0.00 | 0.00 | 99 | 1014.4 |
| 20260906100301 | 72 | 13 | 0.0 | 0.0 | 0.00 | 0.00 | 0.00 | 99 | 1014.0 |
| 20260906095756 | 72 | 13 | 0.0 | 0.0 | 0.00 | 0.00 | 0.00 | 99 | 1014.2 |
| 20260906095252 | 72 | 13 | 0.0 | 0.0 | 0.00 | 0.00 | 0.00 | 99 | 1014.1 |
| 20260906094750 | 72 | 13 | 0.0 | 0.0 | 0.00 | 0.00 | 0.00 | 99 | 1014.4 |
| 20260906094246 | 72 | 13 | 0.0 | 0.0 | 0.00 | 0.00 | 0.00 | 99 | 1014.5 |
| 20260906093742 | 72 | 13 | 0.0 | 0.0 | 0.00 | 0.00 | 0.00 | 99 | 1014.4 |
| 20260906093238 | 72 | 13 | 0.0 | 0.0 | 0.00 | 0.00 | 0.00 | 99 | 1014.5 |
| 20260906092733 | 72 | 13 | 0.0 | 0.0 | 0.00 | 0.00 | 0.00 | 99 | 1014.4 |
| 20260906092233 | 72 | 14 | 0.0 | 3.0 | 0.00 | 0.00 | 0.00 | 99 | 1014.6 |
| 20260906091728 | 72 | 13 | 0.0 | 2.0 | 0.00 | 0.00 | 0.00 | 99 | 1014.7 |
| 20260906091224 | 72 | 14 | 0.0 | 0.0 | 0.00 | 0.00 | 0.00 | 99 | 1014.4 |
| 20260906090721 | 72 | 14 | 0.0 | 0.0 | 0.00 | 0.00 | 0.00 | 99 | 1014.3 |
| 20260906090219 | 71 | 14 | 0.0 | 0.0 | 0.00 | 0.00 | 0.00 | 99 | 1014.2 |
| 20260906085719 | 71 | 14 | 0.0 | 0.0 | 0.00 | 0.00 | 0.00 | 99 | 1014.0 |
| 20260906085217 | 71 | 14 | 0.0 | 0.0 | 0.00 | 0.00 | 0.00 | 99 | 1014.0 |
| 20260906084712 | 72 | 14 | 0.0 | 0.0 | 0.00 | 0.00 | 0.00 | 99 | 1014.0 |
| 20260906084207 | 72 | 14 | 0.0 | 0.0 | 0.00 | 0.00 | 0.00 | 99 | 1014.1 |
| 20260906083702 | 72 | 14 | 0.0 | 0.0 | 0.00 | 0.00 | 0.00 | 99 | 1014.0 |
| 20260906083157 | 72 | 14 | 0.0 | 0.0 | 0.00 | 0.00 | 0.00 | 99 | 1014.0 |
| 20260906082652 | 71 | 14 | 0.0 | 1.0 | 0.00 | 0.00 | 0.00 | 99 | 1014.4 |
| 20260906082147 | 71 | 51 | 0.0 | 0.0 | 0.00 | 0.00 | 0.00 | 99 | 1014.3 |
| 20260906081644 | 71 | 51 | 0.0 | 0.0 | 0.00 | 0.00 | 0.00 | 99 | 1014.2 |
| 20260906081138 | 71 | 51 | 0.0 | 0.0 | 0.00 | 0.00 | 0.00 | 99 | 1014.3 |
| 20260906080635 | 71 | 51 | 0.0 | 1.0 | 0.00 | 0.00 | 0.00 | 99 | 1014.0 |
| 20260906080131 | 71 | 51 | 0.0 | 0.0 | 0.00 | 0.00 | 0.00 | 99 | 1013.9 |
| 20260906075630 | 71 | 51 | 0.0 | 0.0 | 0.00 | 0.00 | 0.00 | 99 | 1013.6 |
| 20260906075125 | 71 | 51 | 0.0 | 0.0 | 0.00 | 0.00 | 0.00 | 99 | 1013.6 |
| 20260906074621 | 71 | 51 | 0.0 | 0.0 | 0.00 | 0.00 | 0.00 | 99 | 1013.7 |
| 20260906074119 | 71 | 51 | 0.0 | 0.0 | 0.00 | 0.00 | 0.00 | 99 | 1013.7 |
| 20260906073614 | 71 | 51 | 0.0 | 0.0 | 0.00 | 0.00 | 0.00 | 99 | 1013.5 |
| 20260906073110 | 71 | 51 | 0.0 | 0.0 | 0.00 | 0.00 | 0.00 | 99 | 1013.6 |
| 20260906072605 | 71 | 51 | 0.0 | 0.0 | 0.00 | 0.00 | 0.00 | 99 | 1013.6 |
| 20260906072100 | 71 | 51 | 0.0 | 0.0 | 0.00 | 0.00 | 0.00 | 99 | 1013.6 |
| 20260906071556 | 72 | 51 | 0.0 | 0.0 | 0.00 | 0.00 | 0.00 | 99 | 1013.7 |
| 20260906071051 | 72 | 51 | 0.0 | 0.0 | 0.00 | 0.00 | 0.00 | 99 | 1013.7 |
| 20260906070548 | 72 | 51 | 0.0 | 0.0 | 0.00 | 0.00 | 0.00 | 99 | 1013.9 |
| 20260906070043 | 72 | 51 | 0.0 | 0.0 | 0.00 | 0.00 | 0.00 | 99 | 1013.8 |
| 20260906065543 | 72 | 51 | 0.0 | 0.0 | 0.00 | 0.00 | 0.00 | 99 | 1013.8 |
| 20260906065039 | 72 | 51 | 0.0 | 0.0 | 0.00 | 0.00 | 0.00 | 99 | 1014.1 |
| 20260906064534 | 72 | 51 | 0.0 | 0.0 | 0.00 | 0.00 | 0.00 | 99 | 1013.9 |
| 20260906064029 | 72 | 51 | 0.0 | 0.0 | 0.00 | 0.00 | 0.00 | 99 | 1014.0 |
| 20260906063524 | 72 | 51 | 0.0 | 0.0 | 0.00 | 0.00 | 0.00 | 99 | 1014.1 |
| 20260906063020 | 72 | 51 | 0.0 | 0.0 | 0.00 | 0.00 | 0.00 | 98 | 1014.1 |
| 20260906062514 | 72 | 51 | 0.0 | 0.0 | 0.00 | 0.00 | 0.00 | 98 | 1014.0 |
| 20260906062004 | 72 | 51 | 0.0 | 0.0 | 0.00 | 0.00 | 0.00 | 98 | 1014.3 |
| 20260906061500 | 72 | 51 | 0.0 | 0.0 | 0.00 | 0.00 | 0.00 | 98 | 1014.0 |
| 20260906060954 | 72 | 51 | 0.0 | 0.0 | 0.00 | 0.00 | 0.00 | 98 | 1014.1 |
| 20260906060450 | 72 | 51 | 0.0 | 0.0 | 0.00 | 0.00 | 0.00 | 98 | 1014.1 |
| 20260906055947 | 72 | 51 | 0.0 | 0.0 | 0.00 | 0.00 | 0.00 | 98 | 1014.0 |
| 20260906055443 | 72 | 51 | 0.0 | 0.0 | 0.00 | 0.00 | 0.00 | 98 | 1014.0 |
| 20260906054938 | 72 | 51 | 0.0 | 0.0 | 0.00 | 0.00 | 0.00 | 98 | 1013.8 |
| 20260906054433 | 72 | 51 | 0.0 | 0.0 | 0.00 | 0.00 | 0.00 | 98 | 1014.0 |
| 20260906053928 | 72 | 51 | 0.0 | 0.0 | 0.00 | 0.00 | 0.00 | 97 | 1013.9 |
| 20260906053424 | 73 | 51 | 0.0 | 0.0 | 0.00 | 0.00 | 0.00 | 97 | 1014.1 |
| 20260906052920 | 73 | 51 | 0.0 | 0.0 | 0.00 | 0.00 | 0.00 | 97 | 1014.1 |
| 20260906052416 | 73 | 51 | 0.0 | 0.0 | 0.00 | 0.00 | 0.00 | 97 | 1014.2 |
| 20260906051912 | 73 | 51 | 0.0 | 0.0 | 0.00 | 0.00 | 0.00 | 97 | 1014.2 |
| 20260906051407 | 73 | 51 | 0.0 | 0.0 | 0.00 | 0.00 | 0.00 | 97 | 1014.1 |
| 20260906050903 | 73 | 51 | 0.0 | 0.0 | 0.00 | 0.00 | 0.00 | 97 | 1014.1 |
| 20260906050357 | 73 | 51 | 0.0 | 0.0 | 0.00 | 0.00 | 0.00 | 96 | 1014.0 |
| 20260906045856 | 73 | 51 | 0.0 | 0.0 | 0.00 | 0.00 | 0.00 | 96 | 1014.3 |
| 20260906045355 | 73 | 51 | 0.0 | 0.0 | 0.00 | 0.00 | 0.00 | 96 | 1014.3 |
| 20260906044851 | 73 | 51 | 0.0 | 0.0 | 0.00 | 0.00 | 0.00 | 96 | 1014.7 |
| 20260906044351 | 73 | 51 | 0.0 | 0.0 | 0.00 | 0.00 | 0.00 | 96 | 1014.6 |
| 20260906043847 | 74 | 51 | 0.0 | 0.0 | 0.00 | 0.00 | 0.00 | 95 | 1014.8 |
| 20260906043343 | 74 | 51 | 0.0 | 0.0 | 0.00 | 0.00 | 0.00 | 95 | 1014.9 |
| 20260906042838 | 74 | 51 | 0.0 | 0.0 | 0.00 | 0.00 | 0.00 | 95 | 1014.6 |
| 20260906042337 | 74 | 51 | 0.0 | 0.0 | 0.00 | 0.00 | 0.00 | 94 | 1014.6 |
| 20260906041833 | 74 | 51 | 0.0 | 0.0 | 0.00 | 0.00 | 0.00 | 94 | 1014.7 |
| 20260906041328 | 74 | 51 | 0.0 | 0.0 | 0.00 | 0.00 | 0.00 | 93 | 1014.7 |
| 20260906040828 | 74 | 51 | 0.0 | 0.0 | 0.00 | 0.00 | 0.00 | 93 | 1014.7 |
| 20260906040323 | 75 | 51 | 0.0 | 0.0 | 0.00 | 0.00 | 0.00 | 92 | 1014.5 |
| 20260906035819 | 74 | 51 | 0.0 | 0.0 | 0.00 | 0.00 | 0.00 | 92 | 1014.5 |
| 20260906035314 | 75 | 51 | 0.0 | 0.0 | 0.00 | 0.00 | 0.00 | 92 | 1014.5 |
| 20260906034809 | 75 | 51 | 0.0 | 0.0 | 0.00 | 0.00 | 0.00 | 92 | 1014.6 |
| 20260906034303 | 75 | 51 | 0.0 | 0.0 | 0.00 | 0.00 | 0.00 | 91 | 1014.6 |
| 20260906033759 | 76 | 51 | 0.0 | 0.0 | 0.00 | 0.00 | 0.00 | 90 | 1014.5 |
| 20260906033258 | 76 | 51 | 0.0 | 0.0 | 0.00 | 0.00 | 0.00 | 90 | 1014.5 |
| 20260906032755 | 76 | 51 | 0.0 | 0.0 | 0.00 | 0.00 | 0.00 | 90 | 1014.4 |
| 20260906032250 | 76 | 51 | 0.0 | 0.0 | 0.00 | 0.00 | 0.00 | 90 | 1014.4 |
| 20260906031744 | 76 | 51 | 0.0 | 0.0 | 0.00 | 0.00 | 0.00 | 90 | 1014.4 |
| 20260906031241 | 76 | 51 | 0.0 | 0.0 | 0.00 | 0.00 | 0.00 | 90 | 1014.3 |
| 20260906030735 | 76 | 51 | 0.0 | 0.0 | 0.00 | 0.00 | 0.00 | 90 | 1014.5 |
| 20260906030230 | 76 | 51 | 0.0 | 0.0 | 0.00 | 0.00 | 0.00 | 90 | 1014.5 |
| 20260906025729 | 76 | 51 | 0.0 | 0.0 | 0.00 | 0.00 | 0.00 | 90 | 1014.3 |
| 20260906025229 | 76 | 51 | 0.0 | 0.0 | 0.00 | 0.00 | 0.00 | 90 | 1014.4 |
| 20260906024728 | 76 | 51 | 0.0 | 0.0 | 0.00 | 0.00 | 0.00 | 89 | 1014.3 |
| 20260906024227 | 77 | 51 | 0.0 | 0.0 | 0.00 | 0.00 | 0.00 | 89 | 1014.3 |
| 20260906023723 | 77 | 51 | 0.0 | 0.0 | 0.00 | 0.00 | 0.00 | 89 | 1014.0 |
| 20260906023218 | 77 | 51 | 0.0 | 0.0 | 0.00 | 0.00 | 0.00 | 88 | 1014.4 |
| 20260906022714 | 77 | 51 | 0.0 | 0.0 | 0.00 | 0.00 | 0.00 | 88 | 1014.7 |
| 20260906022209 | 77 | 51 | 0.0 | 0.0 | 0.00 | 0.00 | 0.00 | 89 | 1014.5 |
| 20260906021705 | 77 | 51 | 0.0 | 0.0 | 0.00 | 0.00 | 0.00 | 89 | 1014.6 |
| 20260906021204 | 77 | 51 | 0.0 | 0.0 | 0.00 | 0.00 | 0.00 | 88 | 1014.3 |
| 20260906020659 | 77 | 51 | 0.0 | 0.0 | 0.00 | 0.00 | 0.00 | 89 | 1014.4 |
| 20260906020153 | 77 | 51 | 0.0 | 0.0 | 0.00 | 0.00 | 0.00 | 89 | 1014.4 |
| 20260906015647 | 77 | 51 | 0.0 | 0.0 | 0.00 | 0.00 | 0.00 | 89 | 1014.4 |
| 20260906015146 | 77 | 51 | 0.0 | 0.0 | 0.00 | 0.00 | 0.00 | 89 | 1014.2 |
| 20260906014641 | 77 | 51 | 0.0 | 1.0 | 0.00 | 0.00 | 0.00 | 89 | 1014.3 |
| 20260906014137 | 77 | 51 | 0.0 | 0.0 | 0.00 | 0.00 | 0.00 | 89 | 1014.3 |
| 20260906013632 | 76 | 51 | 0.0 | 0.0 | 0.00 | 0.00 | 0.00 | 89 | 1014.1 |
| 20260906013127 | 76 | 51 | 0.0 | 0.0 | 0.00 | 0.00 | 0.00 | 88 | 1014.1 |
| 20260906012622 | 77 | 51 | 0.0 | 0.0 | 0.00 | 0.00 | 0.00 | 88 | 1014.1 |
| 20260906012117 | 77 | 51 | 0.0 | 0.0 | 0.00 | 0.00 | 0.00 | 87 | 1013.6 |
| 20260906011612 | 77 | 51 | 0.0 | 0.0 | 0.00 | 0.00 | 0.00 | 87 | 1013.2 |
| 20260906011107 | 77 | 51 | 0.0 | 0.0 | 0.00 | 0.00 | 0.00 | 86 | 1013.4 |
| 20260906010603 | 78 | 51 | 0.0 | 0.0 | 0.00 | 0.00 | 0.00 | 86 | 1013.2 |
| 20260906010059 | 78 | 51 | 0.0 | 0.0 | 0.00 | 0.00 | 0.00 | 85 | 1013.0 |
| 20260906005558 | 78 | 51 | 0.0 | 0.0 | 0.00 | 0.00 | 0.00 | 84 | 1012.6 |
| 20260906005056 | 78 | 51 | 0.0 | 1.0 | 0.00 | 0.00 | 0.00 | 84 | 1012.6 |
| 20260906004556 | 78 | 51 | 0.0 | 1.0 | 0.00 | 0.00 | 0.00 | 85 | 1012.7 |
| 20260906004051 | 79 | 51 | 0.0 | 0.0 | 0.00 | 0.00 | 0.00 | 83 | 1012.7 |
| 20260906003546 | 79 | 51 | 0.0 | 0.0 | 0.00 | 0.00 | 0.00 | 82 | 1012.8 |
| 20260906003042 | 79 | 51 | 0.0 | 0.0 | 0.00 | 0.00 | 0.00 | 81 | 1012.7 |
| 20260906002537 | 79 | 51 | 0.0 | 0.0 | 0.00 | 0.00 | 0.00 | 82 | 1012.8 |
| 20260906002032 | 79 | 51 | 0.0 | 1.0 | 0.00 | 0.00 | 0.00 | 81 | 1012.7 |
| 20260906001527 | 80 | 51 | 0.0 | 0.0 | 0.00 | 0.00 | 0.00 | 79 | 1012.9 |
| 20260906001022 | 80 | 51 | 0.0 | 0.0 | 0.00 | 0.00 | 0.00 | 79 | 1013.0 |
| 20260906000518 | 80 | 51 | 0.0 | 0.0 | 0.00 | 0.00 | 0.00 | 77 | 1012.7 |
| 20260906000018 | 80 | 50 | 0.0 | 0.0 | 0.00 | 0.00 | 0.00 | 77 | 1013.0 |
| 20260905235511 | 81 | 64 | 0.0 | 0.0 | 0.00 | 0.00 | 0.00 | 76 | 1013.2 |
| 20260905235007 | 81 | 64 | 0.0 | 0.0 | 0.00 | 0.00 | 0.00 | 75 | 1013.3 |
| 20260905234502 | 81 | 64 | 0.0 | 0.0 | 0.00 | 0.00 | 0.00 | 75 | 1013.2 |
| 20260905233956 | 82 | 64 | 0.0 | 2.0 | 0.00 | 0.00 | 0.00 | 75 | 1013.0 |
| 20260905233452 | 82 | 64 | 0.0 | 0.0 | 0.00 | 0.00 | 0.00 | 73 | 1013.0 |
| 20260905232950 | 83 | 63 | 2.0 | 2.0 | 0.00 | 0.00 | 0.00 | 73 | 1013.2 |
| 20260905232447 | 83 | 63 | 0.0 | 1.0 | 0.00 | 0.00 | 0.00 | 71 | 1013.3 |
| 20260905231942 | 84 | 72 | 1.0 | 1.0 | 0.00 | 0.00 | 0.00 | 68 | 1013.1 |
| 20260905231433 | 85 | 72 | 0.0 | 1.0 | 0.00 | 0.00 | 0.00 | 67 | 1013.0 |
| 20260905230928 | 86 | 76 | 0.0 | 1.0 | 0.00 | 0.00 | 0.00 | 65 | 1013.1 |
| 20260905230426 | 86 | 75 | 0.0 | 1.0 | 0.00 | 0.00 | 0.00 | 62 | 1013.1 |
| 20260905225919 | 87 | 18 | 0.0 | 3.0 | 0.00 | 0.00 | 0.00 | 62 | 1013.1 |
| 20260905225415 | 88 | 350 | 0.0 | 3.0 | 0.00 | 0.00 | 0.00 | 59 | 1013.1 |
| 20260905224910 | 89 | 330 | 0.0 | 0.0 | 0.00 | 0.00 | 0.00 | 57 | 1012.7 |
| 20260905224406 | 88 | 330 | 0.0 | 0.0 | 0.00 | 0.00 | 0.00 | 57 | 1012.7 |
| 20260905223859 | 88 | 330 | 2.0 | 4.0 | 0.00 | 0.00 | 0.00 | 57 | 1012.7 |
| 20260905223357 | 88 | 321 | 0.0 | 3.0 | 0.00 | 0.00 | 0.00 | 59 | 1012.6 |
| 20260905222852 | 88 | 326 | 1.0 | 3.0 | 0.00 | 0.00 | 0.00 | 61 | 1012.6 |